Kezdőlap
METAR-TAF:

METAR-TAF

Repülőterek :

Fairmont Municipal Airport

Fairmont, Minnesota, Amerikai Egyesült Államok

földrajzi szélesség: 43-39N, földrajzi hosszúság: 094-25W, magasság: 354 m

Jelenlegi meteorológiai megfigyelések

A jelentés 17 perccel ezelõtt készült, 09:56 UTC
Kelet-délkeleti szél 4 kt
Hőmérséklet 12°C
Páratartalom 82%
Légköri nyomás 1016 hPa
Látótávolság: 16.1 km
Borult 8000 lábon

METAR: KFRM 170956Z AUTO 12004KT 10SM OVC080 12/09 A3000 RMK AO2 RAE52 SLP160 P0002 T01170089

Idő: 05:13 (10:13 UTC)


TAF: hiányzik

Meteorológiai megfigyelések és előrejelzések több, mint 4000 repülőtéren (METAR és TAF jelentéseket).

A térképen piros és sárga pontok jelzik az elérhető meteorológiai állomásokat.

Mozgassa az egeret a pont fölött, hogy megjelenjen az állomás neve.

Azután kattintson az időjárási megfigyelések és előrejelzések megtekintéséhez.

A térkép megváltoztatása: kattintson a fekete keresztel jelölt zöld gombra ráközelítéshez, a vonallal jelölt zöld gombra távolításhoz, vagy a zöld nyilakra a szomszédos térképek eléréséhez.


METAR-TAF: